Regional Weather Roundup
Issued by NWS

Home | Current Version | Previous Version | Graphics & Text | Print | Product List | Glossary On
Versions: 1 2 3 4 5 6 7 8 9 10 11 12 13 14 15 16 17 18 19 20 21 22 23 24 25 26 27 28 29 30 31 32 33 34 35 36 37 38 39 40 41 42 43 44 45 46 47 48 49 50
000
ASUS43 KLOT 290403
RWRIL

ILLINOIS REGIONAL WEATHER ROUNDUP
NATIONAL WEATHER SERVICE CHICAGO/ROMEOVILLE IL
1100 PM CDT FRI APR 28 2017

NOTE: "FAIR" INDICATES FEW OR NO CLOUDS BELOW 12,000 FEET WITH NO
SIGNIFICANT WEATHER AND/OR OBSTRUCTIONS TO VISIBILITY.

* THESE STATIONS ARE NOT UNDER NWS QUALITY CONTROL. THEY ALSO MAY NOT
  REPORT WEATHER SUCH AS PRECIPITATION OR FOG.

ILZ001-002-007-009-015-016-024-290500-
NORTHWEST ILLINOIS

CITY           SKY/WX    TMP DP  RH WIND       PRES   REMARKS
MOLINE         CLOUDY    49  45  86 N5        29.98R
STERLING*      CLOUDY    48  46  93 NE10      30.00R
SAVANNA*       CLOUDY    45  44  95 N9        30.01R FOG
$$

ILZ003-004-008-010-011-017-018-290500-
NORTH CENTRAL ILLINOIS

CITY           SKY/WX    TMP DP  RH WIND       PRES   REMARKS
ROCKFORD       DRIZZLE   48  45  89 N14       30.04R FOG
FREEPORT*      CLOUDY    44  44  97 NE7       30.03R FOG
ROCHELLE*      CLOUDY    48  47  94 N13       30.01R
DE KALB*       CLOUDY    49  44  83 NE10      30.01R
PERU*          CLOUDY    53  50  89 N8        29.98R FOG
$$

ILZ005-006-012>014-019>023-290500-
NORTHEAST ILLINOIS

CITY           SKY/WX    TMP DP  RH WIND       PRES   REMARKS
CHICAGO-OHARE  CLOUDY    48  39  71 N13G21    29.99R
CHICAGO-MIDWAY CLOUDY    51  42  71 NE13      29.98R
AURORA         CLOUDY    52  45  77 NE12      29.98R
LANSING*       MOCLDY    47  45  91 N5        29.97R
WAUKEGAN       CLOUDY    45  41  86 N8        30.01R
DUPAGE AIRPORT MOCLDY    50  43  77 NE7       29.99R
WHEELING       CLOUDY    46  41  82 N10       30.02R
MORRIS*        CLOUDY    54  49  83 CALM      29.96R
NORTHERLY ISL    N/A     47  40  76 N12         N/A
$$

LMZ740>746-290500-
SOUTHERN LAKE MICHIGAN

STATION/POSITION SKY/WX   TEMP    WIND        PRES    VSBY  WAVE
                          AIR SEA DIR/SP/G                  HT/PER
                          (F)     (DEG/KT/KT) (MB)    (MI)  (FT/S)
SOUTHERN BUOY              43 41   10/ 14/ 16 1015.6          1
HARRISON CRIB              47     360/ 16/ 17   N/A
BURNHAM HARBOR             47      10/ 11/ 15   N/A
CALUMET HARBOR             47     350/  7/ 12 1014.4R
BURNS HARBOR               47      20/  8/ 10 1015.2R
MICHIGAN CITY              48      30/  8/  9   N/A
MICHIGAN CITY 6N           45 47                N/A           1/ 3
ST. JOSEPH                 49 48   40/ 10/ 12 1015.1R         1/ 3
$$

ILZ025>027-034>036-040-047-049-050-058-095>099-290500-
WEST-CENTRAL ILLINOIS

CITY           SKY/WX    TMP DP  RH WIND       PRES   REMARKS
QUINCY         CLOUDY    56  56 100 N7        29.92R
GALESBURG*     CLOUDY    50  50  99 N8        29.94F FOG
MACOMB*        DRIZZLE   56  55  95 NE3       29.96S
JACKSONVILLE*  CLOUDY    55  54  98 N6        29.91S FOG
PITTSFIELD*    CLOUDY    56  56  99 N8        29.91F FOG
$$

ILZ028>032-037-038-041>044-048-051>054-059>061-290500-
CENTRAL ILLINOIS

CITY           SKY/WX    TMP DP  RH WIND       PRES   REMARKS
PONTIAC        CLOUDY    55  55  98 E6        29.95R FOG
BLOOMINGTON    CLOUDY    53  52  96 NE7       29.92F FOG
DECATUR        CLOUDY    56  56 100 N5        29.90R
PEORIA         CLOUDY    58  55  90 CALM      29.94R
SPRINGFIELD    CLOUDY    57  55  93 N9        29.91R FOG
TAYLORVILLE    NOT AVBL
$$

ILZ033-039-045-046-055>057-062-063-290500-
EAST-CENTRAL ILLINOIS

CITY           SKY/WX    TMP DP  RH WIND       PRES   REMARKS
CHAMPAIGN      CLOUDY    56  53  90 NE7       29.91R FOG
RANTOUL*       MOCLDY    56  56  98 N5        29.92R FOG
MATTOON        CLOUDY    56  55  97 E5        29.89S
$$

ILZ079-100>102-290500-
SOUTHWEST ILLINOIS

CITY           SKY/WX    TMP DP  RH WIND       PRES   REMARKS
BELLEVILLE     MOCLDY    57  57 100 NE3       29.83S FOG
CAHOKIA*       CLOUDY    58  55  90 NE5       29.83F FOG
$$

ILZ064>066-069>071-074>076-080>082-084>086-088>090-092>094-290500-
SOUTH-CENTRAL ILLINOIS

CITY           SKY/WX    TMP DP  RH WIND       PRES   REMARKS
CARBONDALE     LGT RAIN  63  63 100 NE8       29.83F
CAIRO*         CLOUDY    74  71  89 S9        29.79R
EFFINGHAM*     CLOUDY    57  57 100 CALM      29.90R FOG
MARION         CLOUDY    64  64 100 N8        29.84F
MT. VERNON     CLOUDY    58  58 100 NE6       29.85F FOG
CENTRALIA*     CLOUDY    58  58 100 NE5       29.85R FOG
SALEM*         CLOUDY    59  57  94 NE6       29.86S FOG
$$

ILZ067-068-072-073-078-083-087-091-290500-
SOUTHEAST ILLINOIS

CITY           SKY/WX    TMP DP  RH WIND       PRES   REMARKS
LAWRENCEVILLE  CLOUDY    59  58  96 NE6       29.85F FOG
FLORA*         CLOUDY    58  58  97 NE5       29.86S FOG
FAIRFIELD*     CLOUDY    59  59  99 CALM      29.84F FOG
HARRISBURG*    TSTM      63  63  99 N13G20    29.81F
ROBINSON*      CLOUDY    57  57  99 NE3       29.88F FOG
CARMI*         TSTM      61  61 100 N9        29.84F
$$

ABBREVIATIONS USED IN REMARKS
   TC - TEMPERATURE IN CELSIUS
  WCI - WIND CHILL INDEX
   HX - HEAT INDEX
  VSB - VISIBILITY
$$





USA.gov is the U.S. government's official web portal to all federal, state and local government web resources and services.